CW4829 Weather Reports


Display with metric or nautical units.
time (UTC)temp
F
wind
direction
speed
MPH
gust
MPH
rain 1hr
in
rain 24hr
in
rain mn
in
humidity
%
barometer
mb
20260904052522 75 144 0.0 2.0 0.00 0.00 0.00 84 1012.6
20260904052021 74 144 0.0 1.0 0.00 0.00 0.00 84 1012.6
20260904051530 74 144 0.0 1.0 0.00 0.00 0.00 84 1012.6
20260904051018 74 144 0.0 1.0 0.00 0.00 0.00 84 1012.7
20260904050540 74 143 0.0 1.0 0.00 0.00 0.00 84 1012.7
20260904050036 75 143 0.0 1.0 0.00 0.00 0.00 84 1012.7
20260904045528 74 143 0.0 1.0 0.00 0.00 0.00 83 1012.7
20260904045036 74 143 0.0 1.0 0.00 0.00 0.00 83 1012.7
20260904044544 75 143 0.0 0.0 0.00 0.00 0.00 83 1012.7
20260904044018 75 143 0.0 0.0 0.00 0.00 0.00 82 1012.7
20260904043526 75 143 0.0 0.0 0.00 0.00 0.00 83 1012.7
20260904043046 75 143 0.0 0.0 0.00 0.00 0.00 82 1012.7
20260904042541 75 143 0.0 0.0 0.00 0.00 0.00 82 1012.8
20260904042027 75 143 0.0 0.0 0.00 0.00 0.00 83 1012.8
20260904041519 75 143 0.0 0.0 0.00 0.00 0.00 82 1012.8
20260904041046 75 143 0.0 2.0 0.00 0.00 0.00 82 1012.7
20260904040523 75 143 0.0 2.0 0.00 0.00 0.00 82 1012.7
20260904040041 75 143 1.0 2.0 0.00 0.00 0.00 82 1012.7
20260904035618 75 143 0.0 2.0 0.00 0.00 0.00 82 1012.7
20260904034557 75 143 0.0 2.0 0.00 0.00 0.00 82 1012.7
20260904034033 75 143 1.0 2.0 0.00 0.00 0.00 81 1012.8
20260904033601 75 143 0.0 2.0 0.00 0.00 0.00 81 1012.8
20260904033022 75 143 1.0 2.0 0.00 0.00 0.00 81 1012.8
20260904032606 75 143 0.0 1.0 0.00 0.00 0.00 81 1012.8
20260904032052 75 143 0.0 0.0 0.00 0.00 0.00 81 1012.8
20260904031520 75 143 0.0 0.0 0.00 0.00 0.00 80 1012.8
20260904030615 76 143 0.0 1.0 0.00 0.00 0.00 80 1012.9
20260904030051 76 143 0.0 1.0 0.00 0.00 0.00 79 1012.9
20260904024611 76 143 1.0 1.0 0.00 0.00 0.00 76 1013.1
20260904023546 76 143 0.0 1.0 0.00 0.00 0.00 76 1013.3
20260904023057 77 143 0.0 1.0 0.00 0.00 0.00 76 1013.3
20260904022514 77 143 0.0 0.0 0.00 0.00 0.00 75 1012.9
20260904022044 77 143 0.0 0.0 0.00 0.00 0.00 74 1012.9
20260904021523 77 143 0.0 0.0 0.00 0.00 0.00 74 1012.9
20260904021047 77 143 0.0 0.0 0.00 0.00 0.00 74 1012.9
20260904020610 77 143 0.0 0.0 0.00 0.00 0.00 74 1012.9
20260904020050 77 143 0.0 0.0 0.00 0.00 0.00 73 1012.9
20260904015629 77 143 0.0 0.0 0.00 0.00 0.00 73 1012.8
20260904015040 77 143 0.0 0.0 0.00 0.00 0.00 72 1012.8
20260904014059 77 143 0.0 2.0 0.00 0.00 0.00 72 1012.6
20260904013531 77 143 1.0 2.0 0.00 0.00 0.00 72 1012.6
20260904013024 78 143 1.0 2.0 0.00 0.00 0.00 72 1012.6
20260904012517 78 143 0.0 2.0 0.00 0.00 0.00 71 1012.3
20260904012101 78 143 0.0 2.0 0.00 0.00 0.00 69 1012.3
20260904011552 78 143 0.0 2.0 0.00 0.00 0.00 69 1012.3
20260904011014 79 143 0.0 2.0 0.00 0.00 0.00 68 1012.7
20260904010609 79 143 0.0 3.0 0.00 0.00 0.00 68 1012.7
20260904005558 79 140 0.0 4.0 0.00 0.00 0.00 66 1012.8
20260904005027 79 140 0.0 4.0 0.00 0.00 0.00 66 1012.8
20260904003601 81 55 1.0 4.0 0.00 0.00 0.00 63 1012.4
20260904003049 81 330 2.0 11.0 0.00 0.00 0.00 62 1012.4
20260904002053 84 109 2.0 8.0 0.00 0.00 0.00 61 1012.3
20260904001528 85 168 3.0 8.0 0.00 0.00 0.00 60 1012.3
20260904001110 86 5 2.0 7.0 0.00 0.00 0.00 59 1012.1
20260903235557 87 192 0.0 0.0 0.00 0.00 0.00 59 1012.2
20260903234041 89 192 0.0 3.0 0.00 0.00 0.00 55 1012.0
20260903233103 89 313 0.0 4.0 0.00 0.00 0.00 54 1012.0
20260903232612 90 309 2.0 4.0 0.00 0.00 0.00 53 1011.7
20260903232031 90 302 0.0 3.0 0.00 0.00 0.00 53 1011.7
20260903231612 90 299 1.0 4.0 0.00 0.00 0.00 52 1011.7
20260903231101 90 190 2.0 5.0 0.00 0.00 0.00 51 1011.7
20260903230533 90 217 1.0 7.0 0.00 0.00 0.00 51 1011.7
20260903225057 91 223 3.0 7.0 0.00 0.00 0.00 48 1011.7
20260903224617 92 192 3.0 6.0 0.00 0.00 0.00 48 1011.7
20260903224047 92 216 3.0 6.0 0.00 0.00 0.00 48 1011.7
20260903223623 92 166 1.0 6.0 0.00 0.00 0.00 48 1011.7
20260903223046 92 229 2.0 7.0 0.00 0.00 0.00 47 1011.7
20260903222518 92 187 3.0 6.0 0.00 0.00 0.00 47 1011.7
20260903222033 92 223 3.0 7.0 0.00 0.00 0.00 48 1011.7